Lid_Strength_Index
-1 -1 -1 2 9 8 10 11 8 9 8 7 7 8 9 10 10 10 5 8 8 8 7 7 3 2 1 1 1 1 1 1 1 1 0 -0 -0 -1 -1 -1 -1 -1 -1 -1 -1 -1 -0 -1 -1
-1 0 1 4 9 11 12 9 10 8 7 7 8 7 8 11 8 9 9 8 7 7 6 6 3 2 2 1 1 1 1 1 1 0 0 0 -0 -0 -0 -0 -1 -1 0 -0 -0 -1 -1 -1 -0
-0 1 4 7 8 11 12 8 8 7 7 7 9 8 9 11 8 9 8 7 6 7 6 6 4 3 3 2 2 2 2 1 1 1 0 0 -0 -0 -0 -0 -0 -0 -0 0 1 -0 -1 -1 -1
1 2 4 8 10 9 8 7 6 8 8 7 7 10 10 9 9 8 7 7 7 7 7 6 4 3 3 2 2 2 2 1 1 1 1 1 0 0 -0 -0 -0 0 0 1 0 0 -1 -1 -2
1 3 7 9 10 8 7 7 7 7 9 9 8 11 11 9 8 8 8 7 8 7 6 6 3 3 3 2 2 2 1 1 1 1 1 1 0 1 0 0 0 1 0 1 1 1 -0 -1 -2
5 4 8 9 10 8 8 7 7 7 8 9 9 10 11 9 9 8 7 7 6 7 6 6 4 3 3 2 2 2 1 1 1 1 1 1 0 1 1 1 1 1 1 1 1 1 1 -0 -1
5 6 9 9 9 8 9 8 9 10 10 12 9 11 10 10 8 7 7 6 6 6 6 6 6 4 3 3 3 2 2 2 2 2 2 2 2 1 1 1 1 1 1 1 1 1 1 1 0
4 6 9 8 9 9 9 10 10 10 12 10 9 12 12 10 8 7 6 6 6 6 6 6 5 5 5 5 3 3 3 2 2 2 2 2 2 3 3 3 3 2 2 2 1 1 0 1 1
3 8 9 10 9 9 9 11 10 9 11 11 10 11 10 8 7 7 7 7 7 7 6 6 5 5 5 4 4 3 3 2 3 3 2 3 4 4 4 3 3 2 2 1 1 1 1 0 1
6 8 9 7 8 9 9 10 10 10 11 11 11 9 9 8 8 9 9 9 8 7 6 5 5 4 4 4 3 4 4 4 4 4 4 4 5 4 3 3 2 2 2 2 1 2 1 1 3
6 8 7 8 8 8 10 11 9 11 12 12 12 11 10 9 9 9 9 8 8 6 5 4 4 3 4 4 4 4 4 4 4 5 5 4 5 5 5 5 4 4 2 3 3 4 4 5 5
8 7 8 8 9 9 11 11 12 12 13 11 11 10 10 10 10 9 9 8 7 6 5 4 4 5 5 5 5 5 5 5 6 5 5 6 6 6 6 6 6 5 4 4 3 3 3 4 5
9 9 9 9 10 10 10 12 13 13 12 11 10 10 10 10 10 8 7 7 6 6 6 5 5 5 6 6 6 5 5 6 6 6 5 5 6 6 6 6 6 6 6 6 5 4 3 3 4
8 9 10 10 11 11 12 12 12 12 11 11 10 10 10 10 9 8 7 7 7 7 6 5 5 5 5 5 5 5 5 5 5 5 5 5 5 6 6 6 6 6 6 6 6 6 5 4 4
9 11 11 11 10 11 10 13 14 12 11 11 10 10 10 10 8 7 7 7 7 6 5 5 5 5 5 5 5 4 4 4 5 5 5 5 5 5 5 6 6 6 6 6 7 7 6 5 4
10 10 12 11 11 11 11 13 13 12 11 11 10 11 11 9 7 6 7 7 7 6 5 5 5 5 5 5 5 5 4 5 5 5 5 5 5 5 5 5 5 5 5 6 6 7 7 6 5
10 10 10 12 10 11 11 12 13 12 12 11 11 11 11 9 7 7 7 7 6 5 5 5 5 6 6 5 5 5 5 5 5 5 5 5 5 5 5 5 5 5 5 5 6 7 7 8 7
11 11 11 11 10 11 11 12 13 12 12 11 12 11 11 9 8 7 7 6 5 5 6 6 6 6 6 6 6 5 5 5 5 5 5 4 4 4 4 5 5 5 5 5 5 6 6 7 8
11 11 11 12 11 12 11 12 13 12 12 12 12 12 11 10 7 7 7 6 6 6 6 6 6 6 6 6 6 7 6 6 5 4 4 4 4 4 4 4 4 5 6 6 5 5 6 7 7
11 12 11 12 12 12 12 13 12 12 12 12 12 12 10 10 8 8 7 7 6 6 6 6 6 6 6 6 6 6 6 5 5 4 5 4 4 4 4 4 4 4 5 6 6 5 6 6 6
12 13 13 13 13 12 13 14 14 12 12 12 11 11 10 10 9 8 8 7 6 7 7 7 6 6 6 6 5 5 5 6 6 6 6 4 4 4 3 3 4 4 4 5 6 6 5 6 6
12 13 14 13 14 13 13 15 13 13 13 13 12 11 11 10 9 8 8 8 7 7 7 7 6 6 6 5 6 7 8 8 7 7 5 4 3 3 2 3 3 3 4 4 5 5 5 5 7
13 12 12 12 13 13 13 15 15 14 14 14 13 11 11 10 9 8 8 7 7 7 7 6 6 6 5 5 5 7 7 7 7 6 5 5 4 3 2 2 3 3 4 4 5 6 5 5 6
13 12 12 12 12 14 13 14 14 14 15 14 13 12 11 10 9 8 8 7 7 7 7 6 6 6 5 5 5 5 6 7 7 6 6 6 4 3 2 2 2 3 4 4 4 5 5 6 6
12 12 13 14 14 14 14 16 14 14 14 14 14 12 11 10 9 8 8 8 8 8 7 7 6 6 5 5 5 5 6 6 6 6 6 6 5 3 3 2 3 3 4 4 4 4 5 5 6
13 13 14 17 16 15 15 16 15 13 13 13 12 12 11 10 9 8 8 8 8 8 7 7 7 6 5 5 5 5 5 5 5 5 5 6 5 4 2 3 3 3 4 4 3 4 4 4 5
13 13 14 15 15 16 13 15 14 14 13 13 13 12 12 10 9 9 8 8 8 8 8 7 7 6 6 5 5 5 6 6 6 5 5 5 5 4 3 3 4 4 5 4 4 3 4 4 4
13 13 15 14 17 18 14 14 15 15 15 14 13 12 12 10 9 8 8 8 8 8 7 7 6 6 6 5 5 5 6 7 6 5 5 5 5 4 3 4 4 4 5 4 3 3 3 3 3
13 14 14 14 15 17 17 15 13 15 14 15 14 12 12 11 9 9 8 8 8 8 7 7 6 6 6 6 5 5 6 7 7 6 5 5 5 4 4 4 4 3 3 3 3 3 3 3 3
14 14 14 14 15 15 16 16 13 14 14 14 14 12 12 10 9 9 8 8 8 8 7 7 7 7 6 6 6 5 6 7 7 6 6 5 5 4 3 4 5 4 4 4 3 3 3 4 4